Flag for Italy Weather past 2 weeks in Varese, Italy

Now
78 °F

Warm.


Feels Like: 80 °F
Forecast: 58 / 71 °F
Wind: 2 mph from Southwest

Location: Stabio

Current Time: Jul 25, 2014 at 6:34:55 PM

Latest Report: Jul 25, 2014 at 5:00 PM


Visibility: N/A

Pressure: 29.86 "Hg

Humidity: 56%

Dew point: 62 °F

Location of VareseLocation

Historic Weather in Varese — Graph

°F

Varese temperature yesterday

Maximum temperature yesterday: 74 °F (at 5:00 PM)
Minimum temperature yesterday: 63 °F (at 4:00 AM)
Average temperature yesterday: 67 °F

Past Weeks' High & Low Weather Summary

 TemperatureHumidityPressure
High85 °F (Jul 18, 4:00 PM)100% (Jul 23, 4:00 AM)30.14 "Hg (Jul 23, 4:00 AM)
Low52 °F (Jul 11, 6:00 AM)33% (Jul 11, 9:00 PM)29.67 "Hg (Jul 10, 4:00 PM)
Average69 °F80%29.92 "Hg
* Reported Jul 10 4:00 PM — Jul 25 4:00 PM, Varese, Weather by CustomWeather, © 2014

Note: Actual official high and low records may vary slightly from our data, if they occured in-between our weather recording intervals... More about our weather records

Advertising

Varese weather history for previous 24 hours

 ConditionsComfort  
Time TempWeatherWind HumidityBarometerVisibility
4:00 PM
Jul 25
78 °FWarm.3 mph58%29.87 "HgN/A
3:00 PM77 °FWarm.3 mph61%29.89 "HgN/A
2:00 PM76 °FMild.2 mph57%29.90 "HgN/A
1:00 PM74 °FMild.2 mph60%29.91 "HgN/A
12:00 PM74 °FMild.2 mph70%29.92 "HgN/A
11:00 AM73 °FMild.2 mph70%29.93 "HgN/A
10:00 AM69 °FMild.2 mph81%29.93 "HgN/A
9:00 AM67 °FMild.1 mph84%29.94 "HgN/A
8:00 AM63 °FMild.1 mph98%29.93 "HgN/A
7:00 AM60 °FCool.1 mph100%29.93 "HgN/A
6:00 AM61 °FCool.1 mph99%29.92 "HgN/A
5:00 AM60 °FCool.1 mph100%29.92 "HgN/A
4:00 AM62 °FCool.1 mph98%29.91 "HgN/A
3:00 AM63 °FMild.2 mph97%29.92 "HgN/A
2:00 AM64 °FMild.1 mph98%29.93 "HgN/A
1:00 AM64 °FMild.1 mph98%29.95 "HgN/A
12:00 AM65 °FMild.1 mph98%29.94 "HgN/A
11:00 PM
Jul 24
66 °FMild.1 mph94%29.93 "HgN/A
10:00 PM66 °FMild.1 mph93%29.92 "HgN/A
9:00 PM67 °FMild.1 mph91%29.88 "HgN/A
8:00 PM69 °FMild.1 mph84%29.88 "HgN/A
7:00 PM70 °FMild.2 mph76%29.86 "HgN/A
6:00 PM72 °FMild.3 mph70%29.85 "HgN/A
Weather by CustomWeather, © 2014

See weather overviewHow to use our weather pages